Location: ActonStarParty
(42.4766°N, 71.4538°W)
Time: 04:41:08
(UTC-04:00)

ISS - All Passes

Search period start: 29 July 2014 00:00
Search period end: 08 August 2014 00:00
Orbit: 411 x 419 km, 51.6° (Epoch: 29 July)

Date Brightness Start Highest point End Pass type
(mag) Time Alt. Az. Time Alt. Az. Time Alt. Az.
29 Jul - 00:31:26 10° WSW 00:34:43 55° NNW 00:38:02 10° NE visible
29 Jul - 02:09:28 10° WNW 02:11:59 19° N 02:14:29 10° NE visible
29 Jul - 03:47:05 10° NW 03:49:35 19° N 03:52:05 10° ENE visible
29 Jul - 05:23:33 10° NW 05:26:52 53° NNE 05:30:10 10° ESE daylight
29 Jul - 07:00:46 10° W 07:03:21 21° SW 07:05:55 10° S daylight
29 Jul - 22:08:34 10° SSE 22:09:39 11° SE 22:10:44 10° ESE night (unlit)
29 Jul - 23:42:32 10° SW 23:45:53 90° NW 23:49:15 10° NE visible
30 Jul - 01:20:13 10° WNW 01:22:57 23° NNW 01:25:42 10° NE visible
30 Jul - 02:58:12 10° NW 03:00:32 17° N 03:02:53 10° NE visible
30 Jul - 04:34:49 10° NW 04:37:58 36° NNE 04:41:06 10° E visible
30 Jul - 06:11:34 10° WNW 06:14:40 35° SW 06:17:46 10° SSE daylight
30 Jul - 22:53:51 10° SW 22:57:06 52° SE 23:00:22 10° ENE night (unlit)
31 Jul - 00:31:00 10° W 00:33:58 28° NNW 00:36:56 10° NE visible
31 Jul - 02:09:11 10° NW 02:11:28 17° N 02:13:46 10° NE visible
31 Jul - 03:46:05 10° NW 03:49:00 27° NNE 03:51:55 10° E visible
31 Jul - 05:22:36 10° WNW 05:25:56 62° SW 05:29:15 10° SE daylight
31 Jul - 22:05:25 10° SSW 22:08:22 30° SE 22:11:20 10° ENE night (unlit)
31 Jul - 23:41:51 10° W 23:45:01 39° NNW 23:48:12 10° NE visible
01 Aug - 01:20:02 10° NW 01:22:24 18° N 01:24:46 10° NE visible
01 Aug - 02:57:19 10° NW 03:00:00 21° NNE 03:02:40 10° ENE visible
01 Aug - 04:33:45 10° NW 04:37:07 78° NNE 04:40:29 10° ESE visible
01 Aug - 06:11:42 10° W 06:13:25 13° SW 06:15:08 10° SSW daylight
01 Aug - 21:17:24 10° S 21:19:42 18° SE 21:22:00 10° E visible
01 Aug - 22:52:48 10° WSW 22:56:06 60° NNW 22:59:26 10° NE night (unlit)
02 Aug - 00:30:48 10° WNW 00:33:20 20° NNW 00:35:53 10° NE visible
02 Aug - 02:08:29 10° NW 02:10:56 19° N 02:13:24 10° NE visible
02 Aug - 03:44:58 10° NW 03:48:15 48° NNE 03:51:31 10° ESE visible
02 Aug - 05:22:04 10° W 05:24:46 23° SW 05:27:28 10° S daylight
02 Aug - 22:03:56 10° SW 22:07:15 82° SE 22:10:37 10° ENE visible
02 Aug - 23:41:31 10° WNW 23:44:17 23° NNW 23:47:04 10° NE visible
03 Aug - 01:19:33 10° NW 01:21:52 17° N 01:24:11 10° NE visible
03 Aug - 02:56:12 10° NW 02:59:18 33° NNE 03:02:24 10° E visible
03 Aug - 04:32:54 10° WNW 04:36:04 39° SW 04:39:13 10° SSE visible
03 Aug - 21:15:16 10° SW 21:18:28 46° SE 21:21:41 10° ENE visible
03 Aug - 22:52:17 10° W 22:55:17 30° NNW 22:58:18 10° NE visible
04 Aug - 00:30:29 10° NW 00:32:46 17° N 00:35:03 10° NE visible
04 Aug - 02:07:27 10° NW 02:10:19 25° NNE 02:13:10 10° ENE visible
04 Aug - 03:43:56 10° WNW 03:47:17 69° SW 03:50:37 10° SE visible
04 Aug - 20:26:53 10° SSW 20:29:43 27° SE 20:32:35 10° ENE visible
04 Aug - 22:03:07 10° W 22:06:19 42° NNW 22:09:32 10° NE visible
04 Aug - 23:41:17 10° NW 23:43:40 18° N 23:46:04 10° NE visible
05 Aug - 01:18:39 10° NW 01:21:16 21° NNE 01:23:53 10° ENE visible
05 Aug - 02:55:04 10° NW 02:58:26 71° NNE 03:01:47 10° ESE visible
05 Aug - 04:32:47 10° W 04:34:47 15° SW 04:36:46 10° SSW visible
05 Aug - 19:38:58 10° S 19:41:02 16° SE 19:43:07 10° E daylight
05 Aug - 21:14:05 10° WSW 21:17:24 67° NNW 21:20:44 10° NE visible
05 Aug - 22:52:01 10° WNW 22:54:35 20° NNW 22:57:10 10° NE visible
06 Aug - 00:29:47 10° NW 00:32:11 18° N 00:34:36 10° NE visible
06 Aug - 02:06:16 10° NW 02:09:31 44° NNE 02:12:45 10° ESE night (unlit)
06 Aug - 03:43:16 10° WNW 03:46:06 25° SW 03:48:55 10° SSE night (unlit)
06 Aug - 20:25:14 10° SW 20:28:32 73° SE 20:31:52 10° ENE visible
06 Aug - 22:02:43 10° WNW 22:05:31 24° NNW 22:08:21 10° NE visible
06 Aug - 23:40:47 10° NW 23:43:05 17° N 23:45:22 10° NE visible
07 Aug - 01:17:30 10° NW 01:20:33 31° NNE 01:23:35 10° E visible
07 Aug - 02:54:08 10° WNW 02:57:21 43° SW 03:00:33 10° SSE night (unlit)
07 Aug - 19:36:35 10° SSW 19:39:44 41° SE 19:42:54 10° ENE daylight
07 Aug - 21:13:28 10° W 21:16:30 32° NNW 21:19:33 10° NE visible
07 Aug - 22:51:40 10° NW 22:53:57 17° N 22:56:15 10° NE visible
